Погода в Камасари

Бразилия     12°41′47″S   38°20′28″W
темп.,
°C
ветер,
м/с
пор.,
м/с
влажн.,
%
обл.,
%
осадки,
мм/ч
давл.,
гПа
погр.,
м
27 февраля, сб
сб2700:00+24всв24860 0.9 1012173
03:00+23в359045 1.4 1011197
06:00+23в24901 0.3 1012186
09:00+27в46719 2.2 1013819
12:00+30вюв565870 1.2 10131174
15:00+29вюв576254 1.3 10101070
18:00+26вюв477841 0.0 1010623
21:00+24вюв258355 0.0 1012276
28 февраля, вс
вс2800:00+23вюв248741 0.0 1012198
03:00+23в129032 0.1 1010162
06:00+23с129048 0.0 1011164
09:00+29в235762 0.0 10121018
12:00+29юв446159 1.0 1011956
15:00+30вюв455879 1.1 1009964
18:00+26вюв367331 0.0 1009430
21:00+25в258026 0.0 1011291
1 марта, пн
пн100:00+24всв248556 0.3 1010173
03:00+23ссв118949 0.6 1009101
06:00+23зсз11900 0.9 101039
09:00+27в477519 4.9 1012908
12:00+28вюв587472 5.5 10111069
15:00+27вюв698050 11.2 1009906
18:00+25вюв487916 0.2 1010690
21:00+25вюв487927 0.3 1012677
2 марта, вт
вт200:00+24в368041 0.1 1012386
03:00+23в238661 0.2 1011201
06:00+23всв138616 0.5 1012225
09:00+28в456214 0.7 10141167
12:00+30вюв565144 0.1 10131233
15:00+29вюв565122 0.1 10111108
18:00+25вюв47670 0.0 1012506
21:00+24вюв37793 0.0 1014443
3 марта, ср
ср300:00+23в25851 0.0 1014288
03:00+22в13871 0.1 1013198
06:00+23в12878 0.0 1014182
09:00+26вюв137245 0.0 1016650
12:00+29юв346086 0.0 10151160
15:00+29юв556158 0.1 10131165
18:00+26вюв47780 0.0 1013553
21:00+25вюв37831 0.0 1014489